Location: Krakow
(50.0830°N, 19.9170°E)
Time: 00:34:56
(UTC+02:00)

CUBEBUG 2 - Visible Passes

Search period start: 31 May 2024 00:00
Search period end: 10 June 2024 00:00
Orbit: 571 x 667 km, 97.8° (Epoch: 30 May)

Date Brightness Start Highest point End Pass type
(mag) Time Alt. Az. Time Alt. Az. Time Alt. Az.
31 May ? 01:56:08 10° NE 01:59:47 23° E 02:03:26 10° SE visible
31 May ? 03:31:43 10° N 03:36:06 49° WNW 03:40:31 10° SW visible
01 Jun ? 02:12:47 10° NNE 02:16:55 32° E 02:20:46 11° SSE visible
01 Jun ? 03:48:52 10° N 03:53:01 35° WNW 03:57:09 10° SW visible
02 Jun ? 02:29:34 10° NNE 02:34:00 46° E 02:37:57 13° S visible
03 Jun ? 02:46:26 10° NNE 02:51:01 66° ESE 02:55:09 13° S visible
04 Jun ? 01:29:06 10° ENE 01:31:17 13° E 01:33:27 10° ESE visible
04 Jun ? 03:03:22 10° NNE 03:08:00 87° WNW 03:12:19 12° SSW visible
05 Jun ? 01:45:12 10° NE 01:48:26 19° E 01:51:40 10° SE visible
05 Jun ? 03:20:23 10° N 03:24:55 61° WNW 03:29:26 10° SSW visible
06 Jun ? 02:01:41 10° NE 02:05:33 26° E 02:09:23 10° SSE visible
06 Jun ? 03:37:26 10° N 03:41:47 43° WNW 03:46:07 10° SW visible
07 Jun ? 02:18:20 10° NNE 02:22:36 36° E 02:26:36 11° SSE visible
08 Jun ? 02:35:05 10° NNE 02:39:36 52° E 02:43:43 12° S visible
09 Jun ? 01:19:13 10° ENE 01:19:40 10° E 01:20:06 10° E visible
09 Jun ? 02:51:55 10° NNE 02:56:33 75° ESE 03:00:49 12° S visible
